This is the latest recevied weather packets stored in our database for station/object KD9IXX-13. If no packets are shown the sender has not sent any weather packets the latest 10 day(s).
| Time | Temp. | Humidity | Pressure | Rain* | Wind** | Luminosity | Snow |
|---|---|---|---|---|---|---|---|
| 1777550703 | 3.89° C | 99% | 1018.5 hPa | 0 mm | - | 74 W/m² | - |
| 1777550402 | 3.33° C | 99% | 1018.6 hPa | 0 mm | - | 65 W/m² | - |
| 1777550103 | 3.33° C | 99% | 1018.6 hPa | 0 mm | - | 42 W/m² | - |
| 1777549802 | 2.78° C | 99% | 1018.7 hPa | 0 mm | - | 40 W/m² | - |
| 1777549503 | 2.22° C | 99% | 1018.5 hPa | 0 mm | - | 35 W/m² | - |
| 1777549202 | 2.22° C | 99% | 1018.5 hPa | 0 mm | - | 32 W/m² | - |
| 1777548902 | 1.67° C | 99% | 1018.6 hPa | 0 mm | - | 29 W/m² | - |
| 1777548602 | 1.67° C | 99% | 1018.5 hPa | 0 mm | - | 25 W/m² | - |
| 1777548302 | 1.67° C | 99% | 1018.6 hPa | 0 mm | - | 23 W/m² | - |
| 1777548002 | 1.11° C | 99% | 1018.6 hPa | 0 mm | - | 20 W/m² | - |
| 1777547702 | 1.11° C | 99% | 1018.4 hPa | 0 mm | - | 16 W/m² | - |
| 1777547401 | 0.56° C | 99% | 1018.3 hPa | 0 mm | - | 13 W/m² | - |
| 1777547102 | 1.11° C | 99% | 1018.2 hPa | 0 mm | - | 9 W/m² | - |
| 1777546802 | 1.11° C | 99% | 1018.4 hPa | 0 mm | - | 6 W/m² | - |
| 1777546502 | 1.11° C | 99% | 1018.2 hPa | 0 mm | - | 4 W/m² | - |
| 1777546203 | 1.11° C | 99% | 1018.4 hPa | 0 mm | - | 1 W/m² | - |
| 1777545902 | 1.11° C | 99% | 1018.3 hPa | 0 mm | - | 0 W/m² | - |
| 1777545602 | 1.67° C | 99% | 1018.3 hPa | 0 mm | - | 0 W/m² | - |
| 1777545302 | 1.67° C | 99% | 1018.3 hPa | 0 mm | - | 0 W/m² | - |
| 1777545002 | 1.67° C | 99% | 1018.1 hPa | 0 mm | - | 0 W/m² | - |
| 1777544702 | 1.67° C | 99% | 1018.4 hPa | 0 mm | - | 0 W/m² | - |
| 1777544402 | 2.22° C | 99% | 1018.2 hPa | 0 mm | - | 0 W/m² | - |
| 1777544102 | 2.22° C | 99% | 1018.3 hPa | 0 mm | - | 0 W/m² | - |
| 1777543802 | 2.22° C | 99% | 1018.2 hPa | 0 mm | - | 0 W/m² | - |
| 1777543502 | 2.22° C | 99% | 1018.3 hPa | 0 mm | - | 0 W/m² | - |
* Rain latest hour (hover to see other rain measurements)
** Current wind speed in m/s (hover to see current wind gust speed)